Dewpoint
19 19 20 21 21 21 21 20 20 21 19 19 18 18 18 18 18 18 18 21 26 30 32 34 38 44 49 56 61 64 65 66 65 66 67 66 66 66 65 65 64 64 63
19 19 19 20 20 21 22 21 21 20 19 19 19 19 19 19 18 17 18 19 25 26 29 32 34 36 41 47 53 59 63 65 65 64 66 66 66 65 65 65 64 65 64
17 18 19 18 20 21 21 21 20 20 20 20 20 20 18 18 18 19 20 22 22 24 28 30 33 35 37 40 44 49 54 58 65 64 64 66 66 65 65 65 65 65 65
17 17 18 18 20 20 20 20 19 19 20 21 20 19 19 19 19 21 21 19 20 25 25 32 38 37 36 36 40 44 46 51 57 64 65 65 66 65 65 64 64 65 65
17 16 17 18 19 19 19 19 18 19 19 20 17 17 19 20 21 20 20 21 24 23 23 22 36 40 42 46 48 51 53 54 54 57 63 65 65 65 65 65 64 64 64
17 15 16 17 18 18 19 19 18 19 20 20 19 18 18 19 20 21 19 20 21 20 20 21 29 30 33 38 43 44 49 51 54 58 61 63 65 66 65 65 65 64 64
16 14 15 15 17 17 18 18 19 18 18 20 19 16 18 20 18 15 19 17 19 17 21 22 26 25 24 31 30 34 40 44 50 53 56 59 64 65 66 65 65 65 64
14 13 14 15 16 17 17 18 18 18 19 20 17 17 15 18 20 15 16 19 17 17 22 17 21 22 23 25 25 29 38 37 45 50 53 56 58 63 65 66 65 64 64
15 15 16 16 16 17 17 17 17 18 16 17 18 16 14 14 15 17 16 17 16 19 18 21 20 21 21 23 26 26 31 37 44 47 51 53 56 58 63 65 65 65 64
14 16 17 16 17 17 17 17 18 18 17 16 18 17 18 18 16 15 16 16 18 17 19 20 19 20 21 24 23 26 32 37 43 44 47 50 52 56 58 64 65 65 64
15 15 16 17 16 17 18 17 17 17 18 17 17 18 18 18 18 17 15 15 16 17 18 18 19 20 22 21 25 26 29 37 39 40 42 45 49 52 54 59 63 65 64
15 16 15 16 16 16 16 17 17 17 17 17 17 18 17 16 15 17 16 16 16 16 17 18 19 19 21 23 22 28 31 31 33 36 39 42 43 48 49 52 55 61 64
15 16 16 16 17 17 17 17 17 17 17 17 17 17 18 18 19 18 17 17 16 17 17 17 18 20 19 21 24 25 25 27 29 32 33 38 39 40 43 47 50 53 63
17 17 17 17 17 18 18 18 18 18 18 18 18 18 18 19 19 18 18 17 16 15 15 15 16 17 19 24 23 21 22 24 26 27 29 31 32 34 39 42 47 48 52
18 17 18 18 18 18 18 18 18 18 18 18 18 19 18 18 19 19 19 18 18 14 14 14 15 20 20 20 21 21 22 22 25 25 24 27 30 33 35 37 43 46 49
19 19 19 19 19 19 19 19 19 19 19 19 18 18 19 19 19 19 19 19 19 18 15 16 16 17 19 19 20 21 22 22 21 22 26 28 27 28 34 35 39 44 47
18 19 19 19 19 20 20 20 20 20 19 19 19 19 19 19 19 19 19 19 19 19 18 17 17 18 18 19 19 20 21 20 21 25 24 24 27 29 32 35 38 41 45
18 19 19 19 19 19 19 20 20 20 20 20 19 19 19 19 19 19 19 19 19 19 18 18 17 17 17 18 19 19 20 22 24 22 22 25 28 29 32 36 36 39 43
19 19 19 19 19 19 19 19 20 21 21 20 20 20 20 20 20 20 20 20 20 20 20 20 18 19 19 19 19 20 20 21 22 21 24 24 28 31 34 36 36 40 43
18 18 19 19 20 19 19 20 19 19 20 21 21 21 21 21 21 21 21 21 21 22 21 21 20 19 19 19 19 19 19 20 20 23 23 23 27 32 33 34 36 39 42
17 17 18 18 19 19 19 20 21 21 21 22 22 23 23 25 25 25 25 24 23 23 22 20 19 19 18 18 17 18 18 18 19 22 23 25 29 34 36 34 34 37 40
15 16 16 17 18 19 19 19 21 25 24 27 27 27 28 27 27 26 25 24 28 27 23 21 20 19 18 17 18 18 18 18 19 22 22 23 23 24 33 34 33 31 35
14 15 15 16 17 18 21 20 22 25 25 23 25 27 26 26 27 26 27 26 25 26 27 27 23 21 19 19 19 19 19 20 20 20 21 21 24 25 28 30 29 30 30
14 15 15 17 18 19 20 20 22 24 27 26 26 26 26 27 27 27 25 24 25 28 28 26 27 28 24 23 22 23 22 21 21 22 23 22 23 25 27 28 28 28 30
15 15 16 18 19 19 20 20 20 21 21 23 25 27 27 26 27 22 21 21 27 27 27 28 27 27 27 26 29 25 23 22 21 21 23 22 22 24 24 25 26 28 31
16 18 18 20 20 18 18 21 19 20 20 24 23 24 26 21 21 19 19 26 26 26 28 26 26 27 27 30 29 31 29 24 22 20 22 22 22 23 26 31 34 32 36
Wind_Speed
12 12 13 13 14 14 13 12 11 13 15 16 14 15 15 14 14 11 11 18 21 22 22 20 19 19 19 19 20 18 16 17 18 17 21 22 22 22 23 23 22 22 20
10 11 12 13 14 13 12 11 11 12 11 12 14 14 14 12 13 14 12 13 18 19 21 21 20 19 20 19 18 20 19 18 19 19 20 23 24 23 24 24 24 24 23
10 10 10 10 9 8 9 10 12 12 13 13 14 13 12 15 13 14 14 12 14 17 18 20 21 21 20 20 21 19 23 24 20 21 20 24 25 25 25 25 25 25 25
8 7 8 9 9 11 11 11 11 10 10 11 13 12 14 13 12 12 12 13 12 12 15 20 21 20 19 19 19 19 18 23 24 23 24 25 27 27 26 27 27 26 26
7 7 8 8 9 10 10 11 11 11 12 12 12 11 15 12 10 12 12 13 14 15 14 19 20 21 23 20 20 18 17 16 23 24 24 26 29 29 30 29 29 28 27
5 5 5 5 6 7 8 9 9 10 8 11 11 10 16 10 7 8 11 12 12 16 17 17 16 17 23 24 22 23 21 18 19 20 21 24 30 32 33 32 31 31 30
3 5 5 7 6 8 8 9 6 9 8 12 6 11 10 6 8 13 10 10 13 16 14 18 15 14 17 21 25 26 23 25 22 20 25 26 25 33 34 34 34 35 34
5 6 6 7 7 7 9 8 9 6 2 10 9 3 5 3 6 15 10 10 17 16 12 17 16 18 16 15 21 26 22 26 24 24 21 23 25 25 37 37 36 36 36
5 6 6 6 6 6 8 9 10 10 11 8 10 5 6 5 17 2 9 10 15 9 16 13 15 16 17 16 18 21 24 24 22 24 23 22 24 29 23 38 39 39 38
5 5 4 5 5 5 6 6 6 6 7 12 5 3 2 5 4 10 5 18 4 13 8 12 15 16 16 14 21 22 24 23 20 22 25 26 26 27 29 25 41 41 40
2 4 4 4 4 4 4 5 6 5 2 5 6 4 4 5 10 10 16 15 15 6 11 12 12 13 13 16 16 19 24 22 22 24 26 28 28 27 30 35 28 43 43
5 3 5 5 5 6 6 6 7 7 7 7 8 8 7 5 10 9 14 17 18 21 16 13 8 14 12 14 19 23 21 23 22 24 26 27 29 29 29 31 31 28 46
4 6 5 6 5 5 5 7 8 9 10 9 9 10 10 11 11 12 14 17 15 15 15 19 11 10 12 15 14 20 25 26 26 26 29 29 30 32 31 31 30 31 34
6 7 6 7 8 7 7 8 8 9 9 9 11 10 11 12 11 12 12 15 21 17 16 19 10 13 12 12 16 27 20 27 27 29 30 32 32 33 31 32 32 31 35
7 7 9 9 10 10 9 9 9 10 11 11 12 12 13 13 12 11 11 12 14 21 25 11 12 8 12 14 17 19 20 26 28 32 34 33 33 32 31 32 32 30 30
7 8 9 10 11 11 10 10 10 10 11 11 12 13 13 13 12 12 13 14 16 20 27 20 19 17 15 17 19 21 21 28 32 33 31 31 34 34 33 32 32 32 31
8 9 10 11 11 12 10 11 12 13 14 14 15 14 17 15 15 14 13 16 19 19 23 32 21 18 19 20 20 19 20 22 22 29 32 34 33 34 33 33 31 32 31
9 10 11 12 12 12 12 12 13 14 15 16 17 15 18 15 16 16 17 21 22 21 21 30 24 22 22 19 21 21 20 20 21 28 33 34 34 34 33 33 33 33 28
10 10 11 12 13 13 13 13 14 15 16 18 18 18 20 17 18 19 22 21 21 21 21 23 29 21 21 19 22 20 20 21 22 29 32 32 33 31 30 31 32 30 27
10 10 11 12 13 15 15 15 16 17 18 18 19 19 20 20 22 24 22 22 21 21 21 22 26 24 22 20 20 21 23 19 23 19 24 29 30 30 31 32 32 29 28
9 11 11 12 13 14 14 15 17 19 20 21 20 20 21 23 28 26 22 23 24 23 23 24 25 23 23 21 22 19 21 21 22 19 22 22 18 16 15 19 19 23 24
11 13 14 14 14 14 18 22 21 17 18 18 17 17 16 21 23 26 28 31 28 21 28 25 26 26 29 23 21 21 21 19 23 15 19 21 16 20 16 15 22 26 29
13 15 16 15 17 15 19 20 21 17 16 16 18 17 18 16 20 18 23 28 29 32 33 28 33 30 31 26 22 22 21 22 24 22 18 24 18 23 19 19 26 30 32
15 16 16 16 16 16 20 21 20 16 15 15 17 18 19 19 18 20 21 24 26 25 23 24 25 24 28 26 23 23 23 25 24 22 18 27 20 22 18 21 30 34 34
15 16 15 16 17 19 21 20 19 15 15 15 17 17 15 18 18 25 24 25 24 21 21 27 31 35 37 35 24 20 22 22 24 23 19 23 20 21 22 25 25 32 32
14 13 15 14 18 17 20 18 18 14 14 13 16 15 15 20 23 26 25 22 21 21 16 21 22 25 30 33 38 29 22 22 21 19 18 19 19 16 10 10 6 13 13
Wind_Direction
49 39 32 30 23 18 17 8 4 8 2 0 2 353 352 349 343 345 348 339 338 339 337 332 332 331 330 333 330 328 269 240 226 215 204 203 197 196 194 189 185 183 178
60 46 38 30 25 16 9 2 15 8 360 356 351 346 341 340 336 337 338 334 340 342 338 332 331 327 324 322 323 322 324 270 246 227 214 210 205 200 197 197 194 188 183
59 50 43 33 22 18 14 14 11 359 355 355 351 343 341 331 329 334 330 332 336 339 341 340 333 329 325 323 320 318 314 315 292 252 225 214 212 207 202 201 197 191 191
68 60 44 26 15 16 15 9 6 359 357 356 341 334 323 317 330 327 339 332 337 348 351 358 351 340 333 327 320 316 314 312 308 302 256 226 215 212 209 206 200 196 192
52 56 32 21 13 13 12 4 357 1 356 352 339 327 309 320 323 341 343 353 6 15 7 359 2 3 2 357 349 345 338 329 312 308 299 245 219 214 211 209 205 202 198
64 44 35 17 9 6 3 2 357 356 342 340 332 325 304 305 334 7 358 6 14 14 1 356 3 5 357 351 353 349 337 335 323 330 317 323 233 217 214 211 208 205 204
41 21 9 358 358 1 356 360 349 349 1 357 2 339 333 351 73 5 18 360 26 6 1 7 2 356 350 347 339 336 331 328 328 320 311 303 311 227 216 213 212 208 205
13 353 345 335 338 346 348 356 0 347 344 22 7 312 11 2 330 333 359 17 6 351 3 351 341 351 344 344 327 331 329 328 322 322 318 319 317 299 224 216 214 213 210
356 343 329 322 326 329 332 338 344 5 345 3 25 24 348 342 338 288 3 16 335 344 340 344 345 336 333 330 332 323 318 319 319 318 316 318 312 307 293 221 217 214 212
336 349 354 339 324 317 313 317 329 337 340 332 6 38 272 286 332 318 308 320 344 326 327 336 328 325 323 324 318 317 317 313 310 315 313 309 315 309 305 276 224 217 212
329 332 347 350 335 325 306 301 307 306 273 284 303 304 276 272 256 261 300 319 315 315 320 314 315 309 311 312 313 314 312 313 310 307 309 306 307 311 314 285 274 224 215
303 321 322 310 301 297 289 287 292 294 287 272 278 283 278 271 283 281 297 307 305 316 317 309 300 300 296 304 311 314 322 314 310 310 309 305 304 308 313 310 310 283 221
281 305 309 310 310 306 299 290 283 282 283 278 276 277 269 265 267 277 287 296 302 309 309 311 302 299 297 296 293 309 311 311 307 306 305 301 303 305 303 303 308 301 256
290 297 308 322 313 309 302 290 283 285 280 276 275 263 264 259 263 265 275 296 305 300 291 277 283 279 277 279 289 302 302 300 301 300 299 298 298 296 298 301 303 308 298
295 302 311 307 306 300 293 288 283 279 273 268 262 253 250 257 259 258 258 265 268 286 291 279 281 245 280 283 284 290 293 292 295 298 295 291 292 289 291 292 287 291 299
278 292 294 297 296 292 291 287 280 272 266 261 261 249 247 253 256 254 252 251 249 258 275 278 278 278 278 281 284 288 286 290 293 292 289 288 288 285 283 285 279 282 292
275 282 287 288 285 283 277 275 273 274 266 264 259 256 259 256 256 257 257 255 253 251 263 280 276 281 281 280 283 283 280 282 281 283 288 287 284 282 279 279 276 277 276
277 275 273 272 270 270 270 266 268 273 270 269 268 264 261 261 258 258 253 251 251 250 253 268 279 284 280 279 278 278 279 277 278 283 285 284 282 278 274 274 271 264 267
273 272 275 273 275 275 272 268 265 269 267 263 263 261 260 260 259 255 249 250 252 254 252 258 273 275 277 276 278 276 276 276 276 280 281 284 281 272 271 274 273 270 270
284 285 279 279 277 278 277 276 275 270 265 261 257 256 257 255 254 256 257 257 258 256 254 257 265 271 270 272 267 274 278 269 275 274 280 283 281 277 275 274 270 265 261
293 291 291 285 282 283 282 273 261 260 261 264 262 260 259 253 258 260 259 255 250 250 249 251 258 261 262 263 256 261 265 271 273 270 277 277 276 284 285 289 286 276 271
299 296 294 290 287 282 280 285 283 274 269 268 272 274 264 263 271 278 279 280 274 259 244 246 251 251 256 253 256 253 259 269 276 260 267 279 288 292 285 284 282 285 277
293 294 292 287 284 277 288 288 286 286 282 278 274 271 277 274 279 278 281 284 282 278 274 252 246 243 252 249 251 256 253 254 262 270 279 281 286 282 274 273 278 279 280
289 289 288 281 281 282 294 297 291 285 275 271 274 272 273 272 271 278 279 279 277 270 264 266 262 251 241 247 243 239 242 253 263 263 258 269 277 273 280 278 276 275 274
286 284 282 286 283 284 296 299 300 292 285 276 279 272 275 270 272 287 291 288 283 277 277 272 270 261 257 256 238 231 237 245 257 258 248 252 266 276 279 279 271 272 266
279 281 281 272 278 289 295 298 301 295 288 284 283 281 280 292 290 295 290 286 288 287 283 281 279 266 261 254 256 253 252 242 238 260 248 239 262 269 275 261 273 315 304